�������l�o���
Date,Time,MP-1(��Sv/h),MP-2(��Sv/h),MP-3(��Sv/h),MP-4(��Sv/h),MP-5(��Sv/h),MP-6(��Sv/h),MP-7(��Sv/h),MP-8(��Sv/h),����,����(m/s),���J
2024/06/29,00:00,0.486,0.748,0.477,0.938,0.689,0.312,0.549,0.506,�k,5.2,��
2024/06/29,00:10,0.489,0.750,0.476,0.938,0.688,0.312,0.548,0.505,�k�k��,4.7,��
2024/06/29,00:20,0.487,0.749,0.475,0.936,0.690,0.313,0.548,0.506,�k,4.3,��
2024/06/29,00:30,0.487,0.749,0.477,0.938,0.688,0.314,0.548,0.506,�k,5.0,��
2024/06/29,00:40,0.487,0.748,0.476,0.939,0.690,0.313,0.548,0.505,�k�k��,5.4,��
2024/06/29,00:50,0.488,0.749,0.476,0.939,0.689,0.312,0.548,0.506,�k,5.4,��
2024/06/29,01:00,0.487,0.751,0.476,0.939,0.688,0.312,0.549,0.506,�k,6.0,��
2024/06/29,01:10,0.487,0.749,0.478,0.937,0.690,0.313,0.548,0.505,�k,6.0,��
2024/06/29,01:20,0.487,0.748,0.475,0.938,0.687,0.313,0.548,0.504,�k�k��,6.2,��
2024/06/29,01:30,0.487,0.749,0.477,0.939,0.688,0.311,0.547,0.507,�k�k��,5.6,��
2024/06/29,01:40,0.486,0.750,0.477,0.936,0.690,0.313,0.549,0.506,�k�k��,5.0,��
2024/06/29,01:50,0.487,0.750,0.475,0.938,0.689,0.313,0.547,0.507,�k�k��,4.9,��
2024/06/29,02:00,0.489,0.750,0.476,0.937,0.689,0.312,0.549,0.507,�k�k��,4.9,��
2024/06/29,02:10,0.488,0.751,0.476,0.939,0.690,0.313,0.548,0.510,�k�k��,5.1,��
2024/06/29,02:20,0.488,0.751,0.478,0.939,0.689,0.314,0.547,0.506,�k�k��,5.1,��
2024/06/29,02:30,0.488,0.750,0.478,0.938,0.689,0.313,0.548,0.508,�k�k��,6.0,��
2024/06/29,02:40,0.488,0.752,0.477,0.939,0.689,0.313,0.547,0.507,�k�k��,5.3,��
2024/06/29,02:50,0.489,0.752,0.478,0.936,0.690,0.313,0.548,0.508,�k�k��,4.5,��
2024/06/29,03:00,0.489,0.751,0.478,0.940,0.689,0.313,0.549,0.509,�k�k��,4.0,�L
2024/06/29,03:10,0.487,0.753,0.477,0.939,0.689,0.314,0.548,0.508,�k�k��,4.5,�L
2024/06/29,03:20,0.489,0.751,0.478,0.939,0.690,0.314,0.547,0.508,�k�k��,3.2,�L
2024/06/29,03:30,0.488,0.751,0.478,0.940,0.689,0.315,0.547,0.509,�k��,3.0,�L
2024/06/29,03:40,0.489,0.751,0.478,0.941,0.689,0.316,0.547,0.509,�k�k��,4.3,�L
2024/06/29,03:50,0.491,0.751,0.479,0.940,0.690,0.314,0.547,0.508,�k�k��,4.4,�L
2024/06/29,04:00,0.490,0.752,0.477,0.940,0.691,0.315,0.547,0.507,�k�k��,4.2,�L
2024/06/29,04:10,0.490,0.752,0.478,0.941,0.689,0.317,0.546,0.508,�k�k��,3.7,�L
2024/06/29,04:20,0.488,0.750,0.477,0.940,0.690,0.316,0.547,0.507,�k�k��,4.3,��
2024/06/29,04:30,0.489,0.750,0.478,0.940,0.688,0.315,0.549,0.506,�k�k��,4.7,��
2024/06/29,04:40,0.489,0.752,0.478,0.939,0.687,0.316,0.547,0.507,�k�k��,4.5,�L
2024/06/29,04:50,0.489,0.749,0.479,0.940,0.690,0.314,0.548,0.508,�k�k��,4.3,�L
2024/06/29,05:00,0.490,0.751,0.478,0.937,0.687,0.314,0.548,0.508,�k,4.4,��
2024/06/29,05:10,0.489,0.750,0.477,0.940,0.688,0.315,0.546,0.507,�k�k��,4.6,�L
2024/06/29,05:20,0.490,0.750,0.479,0.938,0.688,0.315,0.547,0.509,�k�k��,4.2,�L
2024/06/29,05:30,0.487,0.752,0.478,0.937,0.689,0.314,0.546,0.507,�k�k��,4.5,�L
2024/06/29,05:40,0.489,0.752,0.477,0.939,0.689,0.314,0.545,0.507,�k�k��,4.2,��
2024/06/29,05:50,0.489,0.751,0.477,0.938,0.689,0.313,0.547,0.509,�k,4.2,��
2024/06/29,06:00,0.490,0.751,0.478,0.941,0.687,0.312,0.547,0.508,�k�k��,4.1,��
2024/06/29,06:10,0.490,0.752,0.478,0.938,0.690,0.315,0.548,0.508,�k�k��,3.4,��
2024/06/29,06:20,0.489,0.752,0.477,0.936,0.688,0.313,0.546,0.507,�k�k��,3.1,��
2024/06/29,06:30,0.489,0.752,0.477,0.939,0.686,0.314,0.546,0.505,�k�k��,3.1,��
2024/06/29,06:40,0.489,0.750,0.477,0.940,0.687,0.313,0.547,0.505,�k,3.1,��
2024/06/29,06:50,0.488,0.750,0.479,0.939,0.687,0.312,0.547,0.507,�k�k��,3.4,��
2024/06/29,07:00,0.490,0.749,0.477,0.938,0.686,0.312,0.547,0.508,�k�k��,3.2,��
2024/06/29,07:10,0.487,0.748,0.480,0.937,0.687,0.313,0.548,0.507,�k,2.2,��
2024/06/29,07:20,0.488,0.749,0.477,0.938,0.688,0.313,0.547,0.507,�k,2.3,��
2024/06/29,07:30,0.488,0.749,0.475,0.939,0.687,0.312,0.549,0.506,�k�k��,3.1,��
2024/06/29,07:40,0.488,0.749,0.478,0.938,0.687,0.312,0.547,0.507,�k�k��,3.2,��
2024/06/29,07:50,0.487,0.749,0.477,0.937,0.686,0.312,0.549,0.506,�k�k��,3.7,��
2024/06/29,08:00,0.487,0.747,0.477,0.937,0.685,0.312,0.548,0.505,�k��,4.0,��
2024/06/29,08:10,0.487,0.752,0.476,0.940,0.686,0.313,0.549,0.506,�k�k��,4.0,��
2024/06/29,08:20,0.490,0.750,0.476,0.937,0.686,0.312,0.549,0.507,�k�k��,3.7,��
2024/06/29,08:30,0.490,0.749,0.476,0.939,0.687,0.312,0.549,0.506,�k��,3.3,��
2024/06/29,08:40,0.490,0.750,0.475,0.937,0.688,0.312,0.549,0.507,�k�k��,3.8,��
2024/06/29,08:50,0.488,0.752,0.478,0.938,0.687,0.313,0.548,0.505,�k�k��,3.3,��
2024/06/29,09:00,0.490,0.750,0.475,0.938,0.687,0.313,0.548,0.505,�k�k��,2.9,��
2024/06/29,09:10,0.491,0.753,0.479,0.938,0.689,0.313,0.549,0.507,�k�k��,2.9,��
2024/06/29,09:20,0.490,0.753,0.478,0.940,0.689,0.314,0.549,0.506,�k��,2.8,��
2024/06/29,09:30,0.490,0.753,0.476,0.938,0.688,0.313,0.550,0.509,�k��,2.9,��
2024/06/29,09:40,0.492,0.756,0.478,0.939,0.688,0.314,0.550,0.508,�k��,3.2,��
2024/06/29,09:50,0.491,0.754,0.478,0.939,0.689,0.313,0.550,0.508,�k��,2.6,��
2024/06/29,10:00,0.490,0.755,0.478,0.939,0.690,0.314,0.551,0.508,�k��,3.2,��
2024/06/29,10:10,0.491,0.755,0.480,0.939,0.692,0.314,0.548,0.507,�k��,3.3,��
2024/06/29,10:20,0.492,0.757,0.481,0.939,0.691,0.312,0.550,0.507,�k��,3.2,��
2024/06/29,10:30,0.491,0.756,0.481,0.941,0.692,0.313,0.549,0.508,�k�k��,3.5,��
2024/06/29,10:40,0.492,0.757,0.479,0.939,0.691,0.314,0.550,0.508,�k�k��,3.5,��
2024/06/29,10:50,0.493,0.757,0.480,0.941,0.691,0.314,0.550,0.508,�k��,3.2,��
2024/06/29,11:00,0.493,0.758,0.480,0.940,0.692,0.313,0.552,0.509,�k��,3.6,��
2024/06/29,11:10,0.493,0.759,0.480,0.939,0.693,0.315,0.551,0.509,�k��,2.8,��
2024/06/29,11:20,0.493,0.759,0.481,0.937,0.695,0.314,0.550,0.508,���k��,2.6,��
2024/06/29,11:30,0.492,0.758,0.480,0.939,0.693,0.315,0.550,0.509,���k��,2.6,��
2024/06/29,11:40,0.494,0.759,0.481,0.939,0.694,0.315,0.550,0.508,���k��,3.6,��
2024/06/29,11:50,0.493,0.760,0.481,0.939,0.694,0.314,0.550,0.508,���k��,3.2,��
2024/06/29,12:00,0.493,0.761,0.480,0.940,0.693,0.315,0.550,0.508,��,3.2,��
2024/06/29,12:10,0.495,0.762,0.482,0.940,0.696,0.314,0.552,0.509,���쓌,3.0,��
2024/06/29,12:20,0.494,0.760,0.483,0.941,0.696,0.313,0.550,0.509,��,3.0,��
2024/06/29,12:30,0.495,0.761,0.483,0.941,0.694,0.315,0.551,0.507,���쓌,3.2,��
2024/06/29,12:40,0.493,0.762,0.485,0.940,0.695,0.315,0.551,0.510,���쓌,3.3,��
2024/06/29,12:50,0.495,0.762,0.482,0.941,0.697,0.315,0.553,0.510,���쓌,2.5,��
2024/06/29,13:00,0.493,0.763,0.483,0.941,0.697,0.314,0.552,0.508,�쓌,2.6,��
2024/06/29,13:10,0.494,0.763,0.483,0.941,0.696,0.315,0.553,0.510,�쓌,3.5,��
2024/06/29,13:20,0.496,0.764,0.482,0.943,0.697,0.314,0.550,0.509,�쓌,2.8,��
2024/06/29,13:30,0.497,0.762,0.483,0.942,0.696,0.316,0.552,0.510,���쓌,3.4,��
2024/06/29,13:40,0.496,0.763,0.483,0.941,0.695,0.314,0.552,0.509,�쓌,3.2,��
2024/06/29,13:50,0.496,0.763,0.483,0.943,0.697,0.315,0.554,0.511,��,2.8,��
2024/06/29,14:00,0.496,0.764,0.484,0.942,0.698,0.315,0.552,0.509,���쓌,2.3,��
2024/06/29,14:10,0.496,0.764,0.483,0.942,0.698,0.314,0.553,0.509,���쓌,2.2,��
2024/06/29,14:20,0.497,0.764,0.482,0.944,0.699,0.315,0.554,0.510,��쓌,4.1,��
2024/06/29,14:30,0.497,0.765,0.483,0.944,0.698,0.314,0.554,0.509,��,3.0,��
2024/06/29,14:40,0.496,0.764,0.484,0.942,0.697,0.315,0.555,0.509,��쓌,3.8,��
2024/06/29,14:50,0.496,0.765,0.484,0.944,0.699,0.316,0.553,0.509,��쓌,3.5,��
2024/06/29,15:00,0.497,0.764,0.484,0.946,0.698,0.316,0.554,0.509,��쓌,3.9,��
2024/06/29,15:10,0.496,0.765,0.484,0.946,0.699,0.316,0.554,0.510,�쓌,3.3,��
2024/06/29,15:20,0.496,0.764,0.483,0.946,0.699,0.315,0.554,0.509,�쓌,3.8,��
2024/06/29,15:30,0.498,0.766,0.485,0.944,0.699,0.314,0.555,0.511,�쓌,4.6,��
2024/06/29,15:40,0.498,0.764,0.484,0.946,0.699,0.314,0.554,0.510,�쓌,3.0,��
2024/06/29,15:50,0.496,0.765,0.483,0.945,0.699,0.315,0.554,0.509,��쓌,3.8,��
2024/06/29,16:00,0.498,0.764,0.484,0.946,0.699,0.315,0.553,0.509,�쓌,4.1,��
2024/06/29,16:10,0.498,0.766,0.486,0.946,0.701,0.316,0.553,0.508,��쓌,4.0,��
2024/06/29,16:20,0.498,0.766,0.484,0.947,0.698,0.315,0.555,0.509,��,3.5,��
2024/06/29,16:30,0.496,0.765,0.485,0.947,0.699,0.315,0.554,0.510,��쓌,3.1,��
2024/06/29,16:40,0.497,0.764,0.485,0.949,0.700,0.315,0.553,0.509,��쓌,3.6,��
2024/06/29,16:50,0.498,0.764,0.486,0.945,0.699,0.315,0.553,0.509,��쓌,3.3,��
2024/06/29,17:00,0.498,0.765,0.485,0.947,0.700,0.313,0.553,0.509,��쓌,3.5,��
2024/06/29,17:10,0.498,0.764,0.484,0.946,0.700,0.314,0.554,0.507,��쓌,3.7,��
2024/06/29,17:20,0.497,0.763,0.484,0.945,0.700,0.315,0.552,0.508,��,3.4,��
2024/06/29,17:30,0.497,0.764,0.483,0.948,0.702,0.317,0.553,0.508,��,3.7,��
2024/06/29,17:40,0.497,0.764,0.483,0.948,0.700,0.316,0.552,0.509,��,3.2,��
2024/06/29,17:50,0.496,0.765,0.484,0.948,0.700,0.317,0.554,0.508,��,3.7,��
2024/06/29,18:00,0.496,0.762,0.484,0.949,0.701,0.317,0.552,0.509,��,3.8,��
2024/06/29,18:10,0.497,0.766,0.484,0.949,0.702,0.315,0.552,0.510,��,3.6,��
2024/06/29,18:20,0.497,0.766,0.485,0.950,0.701,0.316,0.552,0.510,��,4.4,��
2024/06/29,18:30,0.496,0.766,0.485,0.950,0.702,0.315,0.552,0.511,��,5.4,��
2024/06/29,18:40,0.497,0.766,0.484,0.949,0.702,0.318,0.551,0.511,��,4.5,��
2024/06/29,18:50,0.497,0.766,0.484,0.951,0.701,0.316,0.552,0.509,��,4.9,��
2024/06/29,19:00,0.497,0.767,0.485,0.949,0.702,0.315,0.550,0.510,��,5.8,��
2024/06/29,19:10,0.498,0.768,0.488,0.950,0.701,0.316,0.550,0.513,��,6.2,��
2024/06/29,19:20,0.500,0.768,0.486,0.948,0.703,0.317,0.550,0.512,��,5.3,��
2024/06/29,19:30,0.497,0.767,0.486,0.950,0.703,0.316,0.551,0.510,��,6.8,��
2024/06/29,19:40,0.499,0.766,0.485,0.951,0.703,0.316,0.552,0.511,��,7.0,��
2024/06/29,19:50,0.499,0.768,0.486,0.951,0.703,0.315,0.553,0.511,��,6.5,��
2024/06/29,20:00,0.499,0.767,0.487,0.951,0.703,0.316,0.553,0.511,��,7.1,��
2024/06/29,20:10,0.499,0.768,0.487,0.951,0.700,0.316,0.551,0.511,��,7.1,��
2024/06/29,20:20,0.498,0.769,0.487,0.953,0.702,0.317,0.552,0.510,��,5.5,��
2024/06/29,20:30,0.500,0.767,0.486,0.951,0.701,0.316,0.553,0.510,��,5.3,��
2024/06/29,20:40,0.500,0.767,0.488,0.952,0.704,0.317,0.553,0.512,��,4.2,��
2024/06/29,20:50,0.499,0.765,0.488,0.953,0.702,0.315,0.553,0.511,��,3.5,��
2024/06/29,21:00,0.499,0.768,0.485,0.953,0.703,0.317,0.553,0.510,��,3.5,��
2024/06/29,21:10,0.498,0.769,0.489,0.953,0.703,0.316,0.553,0.511,��쐼,3.3,��
2024/06/29,21:20,0.502,0.769,0.488,0.954,0.702,0.316,0.554,0.509,�쐼,3.3,��
2024/06/29,21:30,0.499,0.769,0.488,0.951,0.702,0.316,0.551,0.511,��쐼,2.6,��
2024/06/29,21:40,0.500,0.769,0.487,0.954,0.702,0.316,0.553,0.511,��쐼,3.1,��
2024/06/29,21:50,0.499,0.769,0.486,0.953,0.703,0.316,0.553,0.512,�쐼,3.5,��
2024/06/29,22:00,0.499,0.769,0.488,0.953,0.702,0.316,0.552,0.510,��쐼,2.3,��
2024/06/29,22:10,0.499,0.769,0.487,0.952,0.703,0.317,0.552,0.511,��쐼,2.5,��
2024/06/29,22:20,0.498,0.770,0.487,0.951,0.703,0.317,0.552,0.510,��,2.6,��
2024/06/29,22:30,0.500,0.770,0.488,0.953,0.704,0.317,0.552,0.511,��,2.6,��
2024/06/29,22:40,0.500,0.767,0.488,0.954,0.704,0.316,0.553,0.510,��,2.6,��
2024/06/29,22:50,0.499,0.769,0.487,0.953,0.703,0.317,0.553,0.511,��,4.3,��
2024/06/29,23:00,0.501,0.769,0.487,0.952,0.703,0.318,0.555,0.512,��,3.5,��
2024/06/29,23:10,0.500,0.768,0.487,0.951,0.703,0.317,0.554,0.511,��쐼,3.5,��
2024/06/29,23:20,0.500,0.768,0.487,0.953,0.703,0.317,0.554,0.511,��쐼,4.2,��
2024/06/29,23:30,0.501,0.768,0.486,0.952,0.705,0.317,0.554,0.511,��쐼,4.1,��
2024/06/29,23:40,0.501,0.771,0.488,0.955,0.704,0.317,0.554,0.511,��쐼,4.3,��
2024/06/29,23:50,0.500,0.769,0.488,0.953,0.705,0.317,0.553,0.512,��쐼,4.1,��
